Weather History for Hato Airport, Curacao, Curacao

Change the Weather History Date:

Saturday, October 20, 2012

  Actual Average Record
Temperature  
Mean Temperature 80 °F -  
Max Temperature 85 °F 87 °F - ()
Min Temperature 74 °F 76 °F - ()
Cooling Degree Days 14    
Growing Degree Days 30 (Base 50)    
Moisture  
Dew Point 75 °F    
Average Humidity 86    
Maximum Humidity 100    
Minimum Humidity 60    
Precipitation  
Precipitation 0.00 in 0.12 in - ()
Sea Level Pressure  
Sea Level Pressure 29.81 in    
Wind  
Wind Speed 4 mph ()    
Max Wind Speed 12 mph    
Max Gust Speed -    
Visibility 6.2 miles    
Events      
T = Trace of Precipitation, MM = Missing Value Source: Averaged Metar Reports

Daily Weather History Graph

Daily Weather History Graph

Search for Another Location

Airport:

Trip Planner

Search our weather history database for the weather conditions in past years. The results will help you decide how hot, cold, wet, or windy it might be!

Date:

Astronomy

Oct. 20, 2012 Rise Set
Actual Time 6:26 AM AST 6:14 PM AST
Civil Twilight 6:04 AM AST 6:36 PM AST
Nautical Twilight 5:39 AM AST 7:00 PM AST
Astronomical Twilight 5:15 AM AST 7:25 PM AST
Moon 11:30 AM AST (10/20) 11:22 PM AST (10/20)
Length of Visible Light 12h 31m
Length of Day
11h 48m
Waxing Crescent, 34% of the Moon is Illuminated
Oct 20
Waxing Crescent
Oct 21
First Quarter
Oct 29
Full
Nov 6
Last Quarter
Nov 13
New

Hourly Weather History & Observations

Time (AST) Temp. Heat Index Dew Point Humidity Pressure Visibility Wind Dir Wind Speed Gust Speed Precip Events Conditions
12:00 AM 77.0 °F - 75.2 °F 94% 29.86 in 6.2 mi South 4.6 mph - N/A   Scattered Clouds
1:00 AM 77.0 °F - 73.4 °F 89% 29.83 in 6.2 mi SW 5.8 mph - N/A   Scattered Clouds
2:00 AM 76 °F - 74 °F 91% 29.81 in 22 mi SSW 3.5 mph - -   Scattered Clouds
2:00 AM 75.2 °F - 73.4 °F 94% 29.80 in 6.2 mi SSW 3.5 mph - N/A   Partly Cloudy
3:00 AM 75.2 °F - 75.2 °F 100% 29.77 in 6.2 mi SSW 3.5 mph - N/A   Partly Cloudy
4:00 AM 75.2 °F - 75.2 °F 100% 29.77 in 6.2 mi Variable 1.2 mph - N/A   Partly Cloudy
5:00 AM 75 °F - 74 °F 97% 29.79 in 22 mi South 2.3 mph - -   Scattered Clouds
5:00 AM 75.2 °F - 75.2 °F 100% 29.77 in 6.2 mi South 2.3 mph - N/A   Partly Cloudy
6:00 AM 75.2 °F - 75.2 °F 100% 29.80 in 6.2 mi Variable 2.3 mph - N/A   Partly Cloudy
7:00 AM 75.2 °F - 75.2 °F 100% 29.83 in 6.2 mi Variable 1.2 mph - N/A   Partly Cloudy
8:00 AM 78 °F - 76 °F 92% 29.86 in 37 mi Calm Calm - -   Scattered Clouds
8:00 AM 77.0 °F - 77.0 °F 100% 29.86 in 6.2 mi Calm Calm - N/A   Partly Cloudy
9:00 AM 80.6 °F 86.2 °F 75.2 °F 84% 29.86 in 6.2 mi South 5.8 mph - N/A   Partly Cloudy
10:00 AM 82.4 °F 88.2 °F 73.4 °F 74% 29.89 in 6.2 mi South 5.8 mph - N/A   Scattered Clouds
11:00 AM 85 °F - 73 °F 60% 29.87 in 37 mi SE 4.6 mph - -   Partly Cloudy
11:00 AM 84.2 °F 90.9 °F 73.4 °F 70% 29.86 in 6.2 mi SE 4.6 mph - N/A   Scattered Clouds
12:00 PM 84.2 °F 92.3 °F 75.2 °F 74% 29.83 in 6.2 mi ESE 5.8 mph - N/A   Scattered Clouds
1:00 PM 84.2 °F 92.3 °F 75.2 °F 74% 29.83 in 6.2 mi East 9.2 mph - N/A   Scattered Clouds
2:00 PM 82 °F - 74 °F 72% 29.80 in 37 mi East 8.1 mph - -   Partly Cloudy
2:00 PM 82.4 °F 89.5 °F 75.2 °F 79% 29.80 in 6.2 mi East 6.9 mph - N/A   Scattered Clouds
3:00 PM 82.4 °F 89.5 °F 75.2 °F 79% 29.77 in 6.2 mi East 4.6 mph - N/A   Partly Cloudy
4:00 PM 82.4 °F 89.5 °F 75.2 °F 79% 29.74 in 6.2 mi East 5.8 mph - N/A   Partly Cloudy
5:00 PM 81 °F - 75 °F 77% 29.75 in 37 mi East 10.4 mph - -   Scattered Clouds
5:00 PM 80.6 °F 86.2 °F 75.2 °F 84% 29.74 in 6.2 mi East 8.1 mph - N/A   Partly Cloudy
6:00 PM 80.6 °F 86.2 °F 75.2 °F 84% 29.74 in 6.2 mi East 11.5 mph - N/A   Scattered Clouds
7:00 PM 80.6 °F 86.2 °F 75.2 °F 84% 29.77 in 6.2 mi ESE 8.1 mph - N/A   Partly Cloudy
8:00 PM 79 °F - 74 °F 82% 29.81 in 31 mi SE 6.9 mph - -   Scattered Clouds
8:00 PM 78.8 °F - 75.2 °F 89% 29.80 in 6.2 mi ESE 6.9 mph - N/A   Partly Cloudy
9:00 PM 78.8 °F - 75.2 °F 89% 29.80 in 6.2 mi ESE 8.1 mph - N/A   Partly Cloudy
10:00 PM 78.8 °F - 75.2 °F 89% 29.83 in 6.2 mi ESE 9.2 mph - N/A   Partly Cloudy
11:00 PM 79 °F - 75 °F 84% 29.83 in 31 mi SE 5.8 mph - -   Partly Cloudy
11:00 PM 78.8 °F - 75.2 °F 89% 29.83 in 6.2 mi ESE 8.1 mph - N/A   Scattered Clouds